Time,TemperatureF,DewpointF,PressureIn,WindDirection,WindDirectionDegrees,WindSpeedMPH,WindSpeedGustMPH,Humidity,HourlyPrecipIn,Conditions,Clouds,dailyrainin,SoftwareType,DateUTC
2013-08-24 00:03:00,79.4,71.9,30.02,ENE,60,0.0,4.0,78,0.00,,---,0.23,VWS V13.01,2013-08-24 05:03:00,
2013-08-24 00:08:00,79.2,71.8,30.02,ENE,60,0.0,0.0,78,0.00,,---,0.00,VWS V13.01,2013-08-24 05:08:00,
2013-08-24 00:13:00,79.1,71.7,30.02,ENE,60,0.0,0.0,78,0.00,,---,0.00,VWS V13.01,2013-08-24 05:13:00,
2013-08-24 00:18:00,78.9,71.5,30.02,ENE,60,0.0,0.0,78,0.00,,---,0.00,VWS V13.01,2013-08-24 05:18:00,
2013-08-24 00:23:00,78.7,71.3,30.02,ENE,60,3.0,3.0,78,0.00,,---,0.00,VWS V13.01,2013-08-24 05:23:00,
2013-08-24 00:28:00,78.7,71.3,30.02,ENE,60,0.0,3.0,78,0.00,,---,0.00,VWS V13.01,2013-08-24 05:28:00,
2013-08-24 00:33:00,78.6,71.2,30.02,ENE,60,2.0,4.0,78,0.00,,---,0.00,VWS V13.01,2013-08-24 05:33:00,
2013-08-24 00:38:00,78.5,71.4,30.02,ENE,60,0.0,3.0,79,0.00,,---,0.00,VWS V13.01,2013-08-24 05:38:00,
2013-08-24 00:43:00,78.5,71.4,30.02,ENE,61,3.0,4.0,79,0.00,,---,0.00,VWS V13.01,2013-08-24 05:43:00,
2013-08-24 00:48:00,78.5,71.1,30.02,ENE,61,0.0,4.0,78,0.00,,---,0.00,VWS V13.01,2013-08-24 05:48:00,
2013-08-24 00:54:00,78.6,71.2,30.02,ENE,61,0.0,4.0,78,0.00,,---,0.00,VWS V13.01,2013-08-24 05:54:00,
2013-08-24 00:59:00,78.6,71.2,30.02,ENE,60,0.0,4.0,78,0.00,,---,0.00,VWS V13.01,2013-08-24 05:59:00,
2013-08-24 01:04:00,78.5,71.1,30.02,ENE,61,0.0,4.0,78,0.00,,---,0.00,VWS V13.01,2013-08-24 06:04:00,
2013-08-24 01:09:00,78.5,71.1,30.02,ENE,61,0.0,2.0,78,0.00,,---,0.00,VWS V13.01,2013-08-24 06:09:00,
2013-08-24 01:14:00,78.3,71.3,30.02,ENE,61,0.0,2.0,79,0.00,,---,0.00,VWS V13.01,2013-08-24 06:14:00,
2013-08-24 01:19:00,78.2,71.2,30.02,ENE,60,0.0,2.0,79,0.00,,---,0.00,VWS V13.01,2013-08-24 06:19:00,
2013-08-24 01:24:00,78.0,71.0,30.02,ENE,61,0.0,2.0,79,0.00,,---,0.00,VWS V13.01,2013-08-24 06:24:00,
2013-08-24 01:29:00,77.9,71.2,30.02,ENE,61,0.0,2.0,80,0.00,,---,0.00,VWS V13.01,2013-08-24 06:29:00,
2013-08-24 01:34:00,77.7,71.0,30.02,ENE,61,0.0,2.0,80,0.00,,---,0.00,VWS V13.01,2013-08-24 06:34:00,
2013-08-24 01:39:00,77.5,71.2,30.02,ENE,61,0.0,0.0,81,0.00,,---,0.00,VWS V13.01,2013-08-24 06:39:00,
2013-08-24 01:44:00,77.3,71.0,30.02,ENE,61,0.0,0.0,81,0.00,,---,0.00,VWS V13.01,2013-08-24 06:44:00,
2013-08-24 01:49:00,77.1,70.8,30.02,ENE,61,0.0,0.0,81,0.00,,---,0.00,VWS V13.01,2013-08-24 06:49:00,
2013-08-24 01:55:00,76.9,71.0,30.02,ENE,61,1.0,3.0,82,0.00,,---,0.00,VWS V13.01,2013-08-24 06:55:00,
2013-08-24 02:00:00,76.7,70.8,30.02,ENE,60,0.0,4.0,82,0.00,,---,0.00,VWS V13.01,2013-08-24 07:00:00,
2013-08-24 02:05:00,76.6,70.7,30.02,ENE,60,0.0,4.0,82,0.00,,---,0.00,VWS V13.01,2013-08-24 07:05:00,
2013-08-24 02:10:00,76.4,70.9,30.02,ENE,60,4.0,4.0,83,0.00,,---,0.00,VWS V13.01,2013-08-24 07:10:00,
2013-08-24 02:15:00,76.3,70.8,30.02,ENE,61,0.0,4.0,83,0.00,,---,0.00,VWS V13.01,2013-08-24 07:15:00,
2013-08-24 02:20:00,76.2,70.7,30.02,ENE,60,0.0,4.0,83,0.00,,---,0.00,VWS V13.01,2013-08-24 07:20:00,
2013-08-24 02:25:00,76.1,70.6,30.02,ENE,60,0.0,4.0,83,0.00,,---,0.00,VWS V13.01,2013-08-24 07:25:00,
2013-08-24 02:30:00,76.0,70.5,30.03,ENE,60,0.0,4.0,83,0.00,,---,0.00,VWS V13.01,2013-08-24 07:30:00,
2013-08-24 02:35:00,75.9,70.4,30.02,ENE,61,0.0,4.0,83,0.00,,---,0.00,VWS V13.01,2013-08-24 07:35:00,
2013-08-24 02:40:00,75.8,70.3,30.03,ENE,61,0.0,0.0,83,0.00,,---,0.00,VWS V13.01,2013-08-24 07:40:00,
2013-08-24 02:45:00,75.7,70.2,30.03,ENE,61,0.0,0.0,83,0.00,,---,0.00,VWS V13.01,2013-08-24 07:45:00,
2013-08-24 02:50:00,75.7,70.2,30.03,ENE,61,0.0,0.0,83,0.00,,---,0.00,VWS V13.01,2013-08-24 07:50:00,
2013-08-24 02:56:00,75.6,70.1,30.03,ENE,61,0.0,0.0,83,0.00,,---,0.00,VWS V13.01,2013-08-24 07:56:00,
2013-08-24 03:01:00,75.5,70.3,30.03,ENE,61,0.0,0.0,84,0.00,,---,0.00,VWS V13.01,2013-08-24 08:01:00,
2013-08-24 03:06:00,75.4,70.2,30.03,ENE,61,0.0,0.0,84,0.00,,---,0.00,VWS V13.01,2013-08-24 08:06:00,
2013-08-24 03:11:00,75.4,70.2,30.04,ENE,61,0.0,0.0,84,0.00,,---,0.00,VWS V13.01,2013-08-24 08:11:00,
2013-08-24 03:16:00,75.3,70.1,30.04,ENE,60,0.0,0.0,84,0.00,,---,0.00,VWS V13.01,2013-08-24 08:16:00,
2013-08-24 03:21:00,75.3,70.1,30.04,ENE,60,0.0,0.0,84,0.00,,---,0.00,VWS V13.01,2013-08-24 08:21:00,
2013-08-24 03:26:00,75.2,70.0,30.04,ENE,60,0.0,0.0,84,0.00,,---,0.00,VWS V13.01,2013-08-24 08:26:00,
2013-08-24 03:31:00,75.2,70.0,30.04,ENE,61,0.0,1.0,84,0.00,,---,0.00,VWS V13.01,2013-08-24 08:31:00,
2013-08-24 03:36:00,75.2,70.0,30.05,ENE,61,0.0,1.0,84,0.00,,---,0.00,VWS V13.01,2013-08-24 08:36:00,
2013-08-24 03:41:00,75.1,70.3,30.05,ENE,60,0.0,1.0,85,0.00,,---,0.00,VWS V13.01,2013-08-24 08:41:00,
2013-08-24 03:46:00,75.1,70.3,30.05,ENE,60,0.0,1.0,85,0.00,,---,0.00,VWS V13.01,2013-08-24 08:46:00,
2013-08-24 03:51:00,75.0,70.2,30.04,ENE,61,0.0,1.0,85,0.00,,---,0.00,VWS V13.01,2013-08-24 08:51:00,
2013-08-24 03:56:00,74.9,70.1,30.05,ENE,61,0.0,2.0,85,0.00,,---,0.00,VWS V13.01,2013-08-24 08:56:00,
2013-08-24 04:02:00,74.9,70.1,30.04,ENE,61,0.0,2.0,85,0.00,,---,0.00,VWS V13.01,2013-08-24 09:02:00,
2013-08-24 04:07:00,74.8,70.0,30.04,ENE,60,0.0,2.0,85,0.00,,---,0.00,VWS V13.01,2013-08-24 09:07:00,
2013-08-24 04:12:00,74.7,69.9,30.04,ENE,60,0.0,0.0,85,0.00,,---,0.00,VWS V13.01,2013-08-24 09:12:00,
2013-08-24 04:17:00,74.6,69.8,30.04,ENE,61,0.0,0.0,85,0.00,,---,0.00,VWS V13.01,2013-08-24 09:17:00,
2013-08-24 04:22:00,74.6,69.8,30.04,ENE,61,0.0,0.0,85,0.00,,---,0.00,VWS V13.01,2013-08-24 09:22:00,
2013-08-24 04:27:00,74.4,69.6,30.04,ENE,60,0.0,0.0,85,0.00,,---,0.00,VWS V13.01,2013-08-24 09:27:00,
2013-08-24 04:32:00,74.3,69.5,30.04,ENE,61,0.0,0.0,85,0.00,,---,0.00,VWS V13.01,2013-08-24 09:32:00,
2013-08-24 04:37:00,74.2,69.8,30.05,ENE,61,0.0,0.0,86,0.00,,---,0.00,VWS V13.01,2013-08-24 09:37:00,
2013-08-24 04:42:00,74.2,69.8,30.05,ENE,61,2.0,4.0,86,0.00,,---,0.00,VWS V13.01,2013-08-24 09:42:00,
2013-08-24 04:47:00,74.1,70.0,30.05,ENE,60,0.0,4.0,87,0.00,,---,0.00,VWS V13.01,2013-08-24 09:47:00,
2013-08-24 04:52:00,74.1,70.0,30.04,ENE,60,0.0,4.0,87,0.00,,---,0.00,VWS V13.01,2013-08-24 09:52:00,
2013-08-24 04:57:00,74.1,70.0,30.04,ENE,61,0.0,4.0,87,0.00,,---,0.00,VWS V13.01,2013-08-24 09:57:00,
2013-08-24 05:03:00,74.1,70.0,30.05,ENE,61,0.0,4.0,87,0.00,,---,0.00,VWS V13.01,2013-08-24 10:03:00,
2013-08-24 05:08:00,74.1,70.0,30.05,ENE,61,0.0,0.0,87,0.00,,---,0.00,VWS V13.01,2013-08-24 10:08:00,
2013-08-24 05:13:00,74.1,70.0,30.05,ENE,60,0.0,0.0,87,0.00,,---,0.00,VWS V13.01,2013-08-24 10:13:00,
2013-08-24 05:18:00,74.0,69.9,30.05,ENE,61,0.0,0.0,87,0.00,,---,0.00,VWS V13.01,2013-08-24 10:18:00,
2013-08-24 05:23:00,74.0,69.9,30.05,ENE,61,0.0,0.0,87,0.00,,---,0.00,VWS V13.01,2013-08-24 10:23:00,
2013-08-24 05:28:00,73.9,69.8,30.05,ENE,60,0.0,0.0,87,0.00,,---,0.00,VWS V13.01,2013-08-24 10:28:00,
2013-08-24 05:33:00,73.8,69.7,30.05,ENE,60,0.0,0.0,87,0.00,,---,0.00,VWS V13.01,2013-08-24 10:33:00,
2013-08-24 05:38:00,73.7,69.6,30.06,ENE,60,0.0,0.0,87,0.00,,---,0.00,VWS V13.01,2013-08-24 10:38:00,
2013-08-24 05:43:00,73.6,69.5,30.06,ENE,61,0.0,0.0,87,0.00,,---,0.00,VWS V13.01,2013-08-24 10:43:00,
2013-08-24 05:48:00,73.5,69.4,30.06,ENE,61,0.0,1.0,87,0.00,,---,0.00,VWS V13.01,2013-08-24 10:48:00,
2013-08-24 05:53:00,73.4,69.6,30.06,ENE,60,0.0,1.0,88,0.00,,---,0.00,VWS V13.01,2013-08-24 10:53:00,
2013-08-24 05:59:00,73.4,69.6,30.06,ENE,60,0.0,1.0,88,0.00,,---,0.00,VWS V13.01,2013-08-24 10:59:00,
2013-08-24 06:04:00,73.3,69.5,30.06,ENE,61,0.0,1.0,88,0.00,,---,0.00,VWS V13.01,2013-08-24 11:04:00,
2013-08-24 06:09:00,73.2,69.4,30.06,ENE,61,0.0,0.0,88,0.00,,---,0.00,VWS V13.01,2013-08-24 11:09:00,
2013-08-24 06:14:00,73.1,69.0,30.06,ENE,60,0.0,0.0,87,0.00,,---,0.00,VWS V13.01,2013-08-24 11:14:00,
2013-08-24 06:19:00,73.1,69.3,30.06,ENE,61,0.0,0.0,88,0.00,,---,0.00,VWS V13.01,2013-08-24 11:19:00,
2013-08-24 06:24:00,73.0,69.2,30.07,ENE,61,0.0,2.0,88,0.00,,---,0.00,VWS V13.01,2013-08-24 11:24:00,
2013-08-24 06:29:00,73.0,69.2,30.07,ENE,61,0.0,2.0,88,0.00,,---,0.00,VWS V13.01,2013-08-24 11:29:00,
2013-08-24 06:34:00,73.0,69.2,30.07,ENE,60,0.0,2.0,88,0.00,,---,0.00,VWS V13.01,2013-08-24 11:34:00,
2013-08-24 06:39:00,73.1,69.7,30.07,ENE,60,2.0,3.0,89,0.00,,---,0.00,VWS V13.01,2013-08-24 11:39:00,
2013-08-24 06:44:00,73.2,69.8,30.08,ENE,61,3.0,3.0,89,0.00,,---,0.00,VWS V13.01,2013-08-24 11:44:00,
2013-08-24 06:49:00,73.2,69.8,30.07,ENE,61,2.0,3.0,89,0.00,,---,0.00,VWS V13.01,2013-08-24 11:49:00,
2013-08-24 06:54:00,73.3,69.9,30.08,ENE,61,3.0,4.0,89,0.00,,---,0.00,VWS V13.01,2013-08-24 11:54:00,
2013-08-24 07:00:00,73.3,69.9,30.08,ENE,60,2.0,4.0,89,0.00,,---,0.00,VWS V13.01,2013-08-24 12:00:00,
2013-08-24 07:05:00,73.3,69.9,30.08,ENE,60,1.0,4.0,89,0.00,,---,0.00,VWS V13.01,2013-08-24 12:05:00,
2013-08-24 07:10:00,73.3,69.9,30.09,ENE,61,2.0,2.0,89,0.00,,---,0.00,VWS V13.01,2013-08-24 12:10:00,
2013-08-24 07:15:00,73.3,69.9,30.09,ENE,61,0.0,2.0,89,0.00,,---,0.00,VWS V13.01,2013-08-24 12:15:00,
2013-08-24 07:20:00,73.3,69.9,30.09,ENE,61,0.0,2.0,89,0.00,,---,0.00,VWS V13.01,2013-08-24 12:20:00,
2013-08-24 07:25:00,73.3,69.9,30.09,ENE,60,0.0,2.0,89,0.00,,---,0.00,VWS V13.01,2013-08-24 12:25:00,
2013-08-24 07:30:00,73.3,69.9,30.09,ENE,60,0.0,2.0,89,0.00,,---,0.00,VWS V13.01,2013-08-24 12:30:00,
2013-08-24 07:35:00,73.4,70.3,30.09,ENE,61,0.0,2.0,90,0.00,,---,0.00,VWS V13.01,2013-08-24 12:35:00,
2013-08-24 07:40:00,73.5,70.4,30.09,ENE,60,0.0,0.0,90,0.00,,---,0.00,VWS V13.01,2013-08-24 12:40:00,
2013-08-24 07:45:00,73.6,70.5,30.09,ENE,60,0.0,3.0,90,0.00,,---,0.00,VWS V13.01,2013-08-24 12:45:00,
2013-08-24 07:50:00,73.7,70.6,30.09,ENE,60,0.0,3.0,90,0.00,,---,0.00,VWS V13.01,2013-08-24 12:50:00,
2013-08-24 07:56:00,73.9,70.8,30.09,ENE,61,0.0,3.0,90,0.00,,---,0.00,VWS V13.01,2013-08-24 12:56:00,
2013-08-24 08:01:00,74.2,71.1,30.10,ENE,61,0.0,3.0,90,0.00,,---,0.00,VWS V13.01,2013-08-24 13:01:00,
2013-08-24 08:06:00,74.5,71.4,30.10,ENE,61,0.0,3.0,90,0.00,,---,0.00,VWS V13.01,2013-08-24 13:06:00,
2013-08-24 08:11:00,74.7,71.6,30.10,ENE,60,0.0,0.0,90,0.00,,---,0.00,VWS V13.01,2013-08-24 13:11:00,
2013-08-24 08:16:00,74.9,71.8,30.10,ENE,61,0.0,0.0,90,0.00,,---,0.00,VWS V13.01,2013-08-24 13:16:00,
2013-08-24 08:21:00,75.1,72.0,30.10,ENE,61,0.0,0.0,90,0.00,,---,0.00,VWS V13.01,2013-08-24 13:21:00,
2013-08-24 08:26:00,75.4,72.3,30.10,ENE,61,0.0,0.0,90,0.00,,---,0.00,VWS V13.01,2013-08-24 13:26:00,
2013-08-24 08:31:00,75.7,72.6,30.10,ENE,61,3.0,4.0,90,0.00,,---,0.00,VWS V13.01,2013-08-24 13:31:00,
2013-08-24 08:36:00,75.8,72.3,30.10,ENE,61,1.0,4.0,89,0.00,,---,0.00,VWS V13.01,2013-08-24 13:36:00,
2013-08-24 08:41:00,76.0,72.5,30.10,ENE,61,2.0,4.0,89,0.00,,---,0.00,VWS V13.01,2013-08-24 13:41:00,
2013-08-24 08:46:00,76.2,72.4,30.10,ENE,60,2.0,4.0,88,0.00,,---,0.00,VWS V13.01,2013-08-24 13:46:00,
2013-08-24 08:51:00,76.5,72.7,30.10,ENE,61,0.0,4.0,88,0.00,,---,0.00,VWS V13.01,2013-08-24 13:51:00,
2013-08-24 08:57:00,76.7,72.5,30.10,ENE,60,0.0,4.0,87,0.00,,---,0.00,VWS V13.01,2013-08-24 13:57:00,
2013-08-24 09:02:00,77.0,72.8,30.10,ENE,61,3.0,5.0,87,0.00,,---,0.00,VWS V13.01,2013-08-24 14:02:00,
2013-08-24 09:07:00,77.4,72.9,30.11,ENE,61,2.0,5.0,86,0.00,,---,0.00,VWS V13.01,2013-08-24 14:07:00,
2013-08-24 09:12:00,77.7,73.2,30.10,ENE,60,0.0,4.0,86,0.00,,---,0.00,VWS V13.01,2013-08-24 14:12:00,
2013-08-24 09:17:00,78.0,73.1,30.11,ENE,60,0.0,4.0,85,0.00,,---,0.00,VWS V13.01,2013-08-24 14:17:00,
2013-08-24 09:22:00,78.4,73.5,30.11,ENE,60,2.0,4.0,85,0.00,,---,0.00,VWS V13.01,2013-08-24 14:22:00,
2013-08-24 09:27:00,78.7,73.5,30.11,ENE,60,0.0,4.0,84,0.00,,---,0.00,VWS V13.01,2013-08-24 14:27:00,
2013-08-24 09:32:00,79.1,73.8,30.11,ENE,61,3.0,5.0,84,0.00,,---,0.00,VWS V13.01,2013-08-24 14:32:00,
2013-08-24 09:37:00,79.5,73.9,30.11,ENE,62,3.0,5.0,83,0.00,,---,0.00,VWS V13.01,2013-08-24 14:37:00,
2013-08-24 09:42:00,79.8,73.8,30.11,ENE,71,2.0,5.0,82,0.00,,---,0.00,VWS V13.01,2013-08-24 14:42:00,
2013-08-24 09:47:00,80.0,74.0,30.11,ENE,71,0.0,5.0,82,0.00,,---,0.00,VWS V13.01,2013-08-24 14:47:00,
2013-08-24 09:53:00,80.4,74.4,30.11,ENE,72,0.0,5.0,82,0.00,,---,0.00,VWS V13.01,2013-08-24 14:53:00,
2013-08-24 09:58:00,80.6,74.2,30.11,SSE,149,0.0,5.0,81,0.00,,---,0.00,VWS V13.01,2013-08-24 14:58:00,
2013-08-24 10:03:00,80.9,74.5,30.11,ENE,65,4.0,5.0,81,0.00,,---,0.00,VWS V13.01,2013-08-24 15:03:00,
2013-08-24 10:08:00,81.2,74.4,30.11,ENE,73,2.0,3.0,80,0.00,,---,0.00,VWS V13.01,2013-08-24 15:08:00,
2013-08-24 10:13:00,81.6,74.5,30.11,ENE,67,3.0,6.0,79,0.00,,---,0.00,VWS V13.01,2013-08-24 15:13:00,
2013-08-24 10:18:00,81.9,74.8,30.11,ENE,67,1.0,6.0,79,0.00,,---,0.00,VWS V13.01,2013-08-24 15:18:00,
2013-08-24 10:23:00,82.3,74.8,30.11,ENE,74,4.0,6.0,78,0.00,,---,0.00,VWS V13.01,2013-08-24 15:23:00,
2013-08-24 10:28:00,82.6,74.7,30.11,East,79,0.0,6.0,77,0.00,,---,0.00,VWS V13.01,2013-08-24 15:28:00,
2013-08-24 10:33:00,83.0,74.7,30.11,East,100,3.0,7.0,76,0.00,,---,0.00,VWS V13.01,2013-08-24 15:33:00,
2013-08-24 10:38:00,83.6,74.8,30.11,SE,136,2.0,3.0,75,0.00,,---,0.00,VWS V13.01,2013-08-24 15:38:00,
2013-08-24 10:43:00,84.1,74.5,30.11,ENE,76,2.0,6.0,73,0.00,,---,0.00,VWS V13.01,2013-08-24 15:43:00,
2013-08-24 10:48:00,84.5,74.9,30.11,SE,126,3.0,7.0,73,0.00,,---,0.00,VWS V13.01,2013-08-24 15:48:00,
2013-08-24 10:53:00,84.8,74.8,30.11,East,90,7.0,7.0,72,0.00,,---,0.00,VWS V13.01,2013-08-24 15:53:00,
2013-08-24 10:59:00,85.2,75.6,30.11,East,86,2.0,7.0,73,0.00,,---,0.00,VWS V13.01,2013-08-24 15:59:00,
2013-08-24 11:04:00,85.4,74.9,30.11,SSE,166,0.0,8.0,71,0.00,,---,0.00,VWS V13.01,2013-08-24 16:04:00,
2013-08-24 11:09:00,85.7,75.2,30.11,East,86,3.0,5.0,71,0.00,,---,0.00,VWS V13.01,2013-08-24 16:09:00,
2013-08-24 11:14:00,85.9,74.6,30.11,SSE,160,2.0,7.0,69,0.00,,---,0.00,VWS V13.01,2013-08-24 16:14:00,
2013-08-24 11:19:00,86.1,74.8,30.11,ENE,59,1.0,7.0,69,0.00,,---,0.00,VWS V13.01,2013-08-24 16:19:00,
2013-08-24 11:24:00,86.3,74.5,30.11,South,179,3.0,7.0,68,0.00,,---,0.00,VWS V13.01,2013-08-24 16:24:00,
2013-08-24 11:29:00,86.7,75.8,30.10,South,191,2.0,7.0,70,0.00,,---,0.00,VWS V13.01,2013-08-24 16:29:00,
2013-08-24 11:34:00,87.1,73.9,30.10,SSW,198,2.0,10.0,65,0.00,,---,0.00,VWS V13.01,2013-08-24 16:34:00,
2013-08-24 11:39:00,87.6,74.4,30.10,East,95,5.0,7.0,65,0.00,,---,0.00,VWS V13.01,2013-08-24 16:39:00,
2013-08-24 11:44:00,88.0,74.3,30.10,South,169,0.0,7.0,64,0.00,,---,0.00,VWS V13.01,2013-08-24 16:44:00,
2013-08-24 11:49:00,88.4,74.7,30.10,ESE,113,3.0,7.0,64,0.00,,---,0.00,VWS V13.01,2013-08-24 16:49:00,
2013-08-24 11:54:00,88.7,74.0,30.10,SE,136,7.0,7.0,62,0.00,,---,0.00,VWS V13.01,2013-08-24 16:54:00,
2013-08-24 12:00:00,88.8,74.6,30.10,SE,133,0.0,8.0,63,0.00,,---,0.00,VWS V13.01,2013-08-24 17:00:00,
2013-08-24 12:05:00,89.0,74.3,30.09,East,101,3.0,8.0,62,0.00,,---,0.00,VWS V13.01,2013-08-24 17:05:00,
2013-08-24 12:10:00,89.2,74.5,30.09,ENE,69,4.0,11.0,62,0.00,,---,0.00,VWS V13.01,2013-08-24 17:10:00,
2013-08-24 12:15:00,89.4,73.7,30.09,South,186,0.0,11.0,60,0.00,,---,0.00,VWS V13.01,2013-08-24 17:15:00,
2013-08-24 12:20:00,89.6,73.9,30.09,South,190,0.0,11.0,60,0.00,,---,0.00,VWS V13.01,2013-08-24 17:20:00,
2013-08-24 12:25:00,90.0,74.3,30.09,ESE,122,0.0,11.0,60,0.00,,---,0.00,VWS V13.01,2013-08-24 17:25:00,
2013-08-24 12:30:00,90.4,74.6,30.09,ENE,69,4.0,11.0,60,0.00,,---,0.00,VWS V13.01,2013-08-24 17:30:00,
2013-08-24 12:35:00,91.0,74.2,30.09,NE,47,5.0,11.0,58,0.00,,---,0.00,VWS V13.01,2013-08-24 17:35:00,
2013-08-24 12:40:00,91.1,73.2,30.08,NE,48,0.0,4.0,56,0.00,,---,0.00,VWS V13.01,2013-08-24 17:40:00,
2013-08-24 12:45:00,90.4,73.6,30.08,NE,49,0.0,4.0,58,0.00,,---,0.00,VWS V13.01,2013-08-24 17:45:00,
2013-08-24 12:50:00,90.4,73.1,30.08,East,86,0.0,6.0,57,0.00,,---,0.00,VWS V13.01,2013-08-24 17:50:00,
2013-08-24 12:55:00,90.2,72.4,30.08,ESE,113,0.0,6.0,56,0.00,,---,0.00,VWS V13.01,2013-08-24 17:55:00,
2013-08-24 13:01:00,90.0,72.7,30.08,ESE,120,0.0,6.0,57,0.00,,---,0.00,VWS V13.01,2013-08-24 18:01:00,
2013-08-24 13:06:00,89.9,72.1,30.08,ESE,121,0.0,6.0,56,0.00,,---,0.00,VWS V13.01,2013-08-24 18:06:00,
2013-08-24 13:11:00,89.8,72.0,30.08,NE,42,1.0,5.0,56,0.00,,---,0.00,VWS V13.01,2013-08-24 18:11:00,
2013-08-24 13:16:00,89.4,73.2,30.08,NE,43,0.0,5.0,59,0.00,,---,0.00,VWS V13.01,2013-08-24 18:16:00,
2013-08-24 13:21:00,89.3,73.1,30.08,NE,43,0.0,5.0,59,0.00,,---,0.00,VWS V13.01,2013-08-24 18:21:00,
2013-08-24 13:26:00,89.2,73.0,30.07,NE,42,0.0,5.0,59,0.00,,---,0.00,VWS V13.01,2013-08-24 18:26:00,
2013-08-24 13:31:00,89.5,73.3,30.08,NE,42,2.0,5.0,59,0.00,,---,0.00,VWS V13.01,2013-08-24 18:31:00,
2013-08-24 13:36:00,89.7,73.5,30.07,SW,225,0.0,5.0,59,0.00,,---,0.00,VWS V13.01,2013-08-24 18:36:00,
2013-08-24 13:41:00,91.5,73.1,30.07,NE,49,4.0,4.0,55,0.00,,---,0.00,VWS V13.01,2013-08-24 18:41:00,
2013-08-24 13:46:00,92.1,74.7,30.07,SSE,159,2.0,10.0,57,0.00,,---,0.00,VWS V13.01,2013-08-24 18:46:00,
2013-08-24 13:51:00,92.6,73.5,30.07,SW,229,1.0,10.0,54,0.00,,---,0.00,VWS V13.01,2013-08-24 18:51:00,
2013-08-24 13:57:00,93.2,74.1,30.07,SW,236,0.0,12.0,54,0.00,,---,0.00,VWS V13.01,2013-08-24 18:57:00,
2013-08-24 14:02:00,92.7,74.2,30.07,SSE,159,0.0,12.0,55,0.00,,---,0.00,VWS V13.01,2013-08-24 19:02:00,
2013-08-24 14:07:00,92.0,73.5,30.07,ESE,109,0.0,12.0,55,0.00,,---,0.00,VWS V13.01,2013-08-24 19:07:00,
2013-08-24 14:12:00,91.4,73.0,30.07,South,173,2.0,7.0,55,0.00,,---,0.00,VWS V13.01,2013-08-24 19:12:00,
2013-08-24 14:17:00,90.9,75.1,30.07,SSE,166,0.0,7.0,60,0.00,,---,0.00,VWS V13.01,2013-08-24 19:17:00,
2013-08-24 14:22:00,90.7,72.9,30.07,SSE,167,0.0,7.0,56,0.00,,---,0.00,VWS V13.01,2013-08-24 19:22:00,
2013-08-24 14:27:00,90.9,73.6,30.07,SE,141,2.0,9.0,57,0.00,,---,0.00,VWS V13.01,2013-08-24 19:27:00,
2013-08-24 14:32:00,91.9,75.0,30.07,SSE,159,0.0,9.0,58,0.00,,---,0.00,VWS V13.01,2013-08-24 19:32:00,
2013-08-24 14:37:00,93.0,74.5,30.07,SW,233,6.0,6.0,55,0.00,,---,0.00,VWS V13.01,2013-08-24 19:37:00,
2013-08-24 14:42:00,93.5,73.8,30.06,South,184,5.0,9.0,53,0.00,,---,0.00,VWS V13.01,2013-08-24 19:42:00,
2013-08-24 14:47:00,93.0,73.9,30.06,South,178,0.0,10.0,54,0.00,,---,0.00,VWS V13.01,2013-08-24 19:47:00,
2013-08-24 14:52:00,93.1,72.9,30.06,ESE,117,0.0,10.0,52,0.00,,---,0.00,VWS V13.01,2013-08-24 19:52:00,
2013-08-24 14:58:00,92.8,73.7,30.06,ESE,117,0.0,10.0,54,0.00,,---,0.00,VWS V13.01,2013-08-24 19:58:00,
2013-08-24 15:03:00,92.7,73.6,30.05,SSE,152,8.0,10.0,54,0.00,,---,0.00,VWS V13.01,2013-08-24 20:03:00,
2013-08-24 15:08:00,92.5,74.0,30.05,South,180,0.0,0.0,55,0.00,,---,0.00,VWS V13.01,2013-08-24 20:08:00,
2013-08-24 15:13:00,92.2,73.7,30.05,SSE,159,0.0,6.0,55,0.00,,---,0.00,VWS V13.01,2013-08-24 20:13:00,
2013-08-24 15:18:00,91.7,73.2,30.05,ENE,61,2.0,6.0,55,0.00,,---,0.00,VWS V13.01,2013-08-24 20:18:00,
2013-08-24 15:23:00,91.2,72.2,30.05,ESE,107,0.0,6.0,54,0.00,,---,0.00,VWS V13.01,2013-08-24 20:23:00,
2013-08-24 15:28:00,91.4,73.0,30.05,ESE,102,7.0,7.0,55,0.00,,---,0.00,VWS V13.01,2013-08-24 20:28:00,
2013-08-24 15:33:00,91.2,74.4,30.05,NE,38,0.0,11.0,58,0.00,,---,0.00,VWS V13.01,2013-08-24 20:33:00,
2013-08-24 15:38:00,89.6,75.8,30.05,NE,38,0.0,0.0,64,0.01,,---,0.01,VWS V13.01,2013-08-24 20:38:00,
2013-08-24 15:43:00,88.9,75.2,30.05,NE,38,0.0,0.0,64,0.01,,---,0.01,VWS V13.01,2013-08-24 20:43:00,
2013-08-24 15:48:00,87.0,78.1,30.05,NE,38,0.0,0.0,75,0.01,,---,0.01,VWS V13.01,2013-08-24 20:48:00,
2013-08-24 15:53:00,87.7,75.4,30.05,NE,38,0.0,3.0,67,0.01,,---,0.01,VWS V13.01,2013-08-24 20:53:00,
2013-08-24 15:59:00,87.9,76.0,30.04,NE,37,0.0,3.0,68,0.01,,---,0.01,VWS V13.01,2013-08-24 20:59:00,
2013-08-24 16:04:00,88.0,74.3,30.04,NE,38,0.0,3.0,64,0.01,,---,0.01,VWS V13.01,2013-08-24 21:04:00,
2013-08-24 16:09:00,88.2,75.0,30.04,NE,38,3.0,5.0,65,0.01,,---,0.01,VWS V13.01,2013-08-24 21:09:00,
2013-08-24 16:14:00,88.3,74.1,30.04,NE,38,0.0,5.0,63,0.01,,---,0.01,VWS V13.01,2013-08-24 21:14:00,
2013-08-24 16:19:00,88.4,74.7,30.04,NE,38,0.0,5.0,64,0.01,,---,0.01,VWS V13.01,2013-08-24 21:19:00,
2013-08-24 16:24:00,88.4,73.7,30.04,East,94,0.0,5.0,62,0.01,,---,0.01,VWS V13.01,2013-08-24 21:24:00,
2013-08-24 16:29:00,88.4,73.7,30.04,East,97,0.0,5.0,62,0.01,,---,0.01,VWS V13.01,2013-08-24 21:29:00,
2013-08-24 16:34:00,88.4,72.8,30.04,SE,140,2.0,7.0,60,0.01,,---,0.01,VWS V13.01,2013-08-24 21:34:00,
2013-08-24 16:39:00,88.4,72.8,30.04,SE,140,0.0,0.0,60,0.00,,---,0.01,VWS V13.01,2013-08-24 21:39:00,
2013-08-24 16:44:00,88.4,72.8,30.04,SE,140,0.0,3.0,60,0.00,,---,0.01,VWS V13.01,2013-08-24 21:44:00,
2013-08-24 16:49:00,88.8,73.1,30.04,SE,140,0.0,3.0,60,0.00,,---,0.01,VWS V13.01,2013-08-24 21:49:00,
2013-08-24 16:54:00,88.9,72.7,30.04,SE,140,0.0,3.0,59,0.00,,---,0.01,VWS V13.01,2013-08-24 21:54:00,
2013-08-24 17:00:00,88.8,72.6,30.04,ESE,123,0.0,7.0,59,0.00,,---,0.01,VWS V13.01,2013-08-24 22:00:00,
2013-08-24 17:05:00,88.8,72.1,30.03,ESE,123,0.0,7.0,58,0.00,,---,0.01,VWS V13.01,2013-08-24 22:05:00,
2013-08-24 17:10:00,88.8,72.6,30.04,ESE,122,2.0,3.0,59,0.00,,---,0.01,VWS V13.01,2013-08-24 22:10:00,
2013-08-24 17:15:00,88.8,73.1,30.04,SE,128,0.0,5.0,60,0.00,,---,0.01,VWS V13.01,2013-08-24 22:15:00,
2013-08-24 17:20:00,88.9,72.2,30.04,SE,139,2.0,8.0,58,0.00,,---,0.01,VWS V13.01,2013-08-24 22:20:00,
2013-08-24 17:25:00,88.9,72.2,30.04,SE,141,6.0,8.0,58,0.00,,---,0.01,VWS V13.01,2013-08-24 22:25:00,
2013-08-24 17:30:00,89.0,72.3,30.03,SE,145,0.0,8.0,58,0.00,,---,0.01,VWS V13.01,2013-08-24 22:30:00,
2013-08-24 17:35:00,88.9,72.2,30.03,SE,145,0.0,8.0,58,0.00,,---,0.01,VWS V13.01,2013-08-24 22:35:00,
2013-08-24 17:40:00,88.9,72.7,30.03,SE,141,0.0,5.0,59,0.00,,---,0.01,VWS V13.01,2013-08-24 22:40:00,
2013-08-24 17:45:00,89.0,71.8,30.03,SE,134,0.0,6.0,57,0.00,,---,0.01,VWS V13.01,2013-08-24 22:45:00,
2013-08-24 17:50:00,89.2,73.0,30.03,SE,137,0.0,6.0,59,0.00,,---,0.01,VWS V13.01,2013-08-24 22:50:00,
2013-08-24 17:56:00,89.3,73.1,30.03,SE,133,2.0,6.0,59,0.00,,---,0.01,VWS V13.01,2013-08-24 22:56:00,
2013-08-24 18:01:00,89.4,72.7,30.03,SSE,153,0.0,6.0,58,0.00,,---,0.01,VWS V13.01,2013-08-24 23:01:00,
2013-08-24 18:06:00,89.6,72.9,30.03,SSE,153,0.0,6.0,58,0.00,,---,0.01,VWS V13.01,2013-08-24 23:06:00,
2013-08-24 18:11:00,89.6,72.9,30.03,SSE,151,1.0,7.0,58,0.00,,---,0.01,VWS V13.01,2013-08-24 23:11:00,
2013-08-24 18:16:00,89.6,72.9,30.03,SSE,150,0.0,7.0,58,0.00,,---,0.01,VWS V13.01,2013-08-24 23:16:00,
2013-08-24 18:21:00,89.5,72.8,30.03,SSE,150,0.0,7.0,58,0.00,,---,0.01,VWS V13.01,2013-08-24 23:21:00,
2013-08-24 18:26:00,89.3,72.1,30.03,SSE,155,2.0,10.0,57,0.00,,---,0.01,VWS V13.01,2013-08-24 23:26:00,
2013-08-24 18:31:00,89.2,72.5,30.03,SE,141,0.0,10.0,58,0.00,,---,0.01,VWS V13.01,2013-08-24 23:31:00,
2013-08-24 18:36:00,89.2,73.0,30.03,SE,141,0.0,10.0,59,0.00,,---,0.01,VWS V13.01,2013-08-24 23:36:00,
2013-08-24 18:41:00,89.0,72.3,30.03,SE,130,2.0,6.0,58,0.00,,---,0.01,VWS V13.01,2013-08-24 23:41:00,
2013-08-24 18:46:00,88.9,72.2,30.04,SSE,153,8.0,9.0,58,0.00,,---,0.01,VWS V13.01,2013-08-24 23:46:00,
2013-08-24 18:51:00,88.7,72.0,30.03,SE,127,0.0,10.0,58,0.00,,---,0.01,VWS V13.01,2013-08-24 23:51:00,
2013-08-24 18:57:00,88.6,71.9,30.04,SSW,203,0.0,10.0,58,0.00,,---,0.01,VWS V13.01,2013-08-24 23:57:00,
2013-08-24 19:02:00,88.3,71.7,30.04,SE,137,0.0,10.0,58,0.00,,---,0.01,VWS V13.01,2013-08-25 00:02:00,
2013-08-24 19:07:00,88.1,72.0,30.04,ENE,78,0.0,10.0,59,0.00,,---,0.01,VWS V13.01,2013-08-25 00:07:00,
2013-08-24 19:12:00,87.8,71.7,30.04,SE,137,0.0,6.0,59,0.00,,---,0.01,VWS V13.01,2013-08-25 00:12:00,
2013-08-24 19:17:00,87.5,71.9,30.04,ESE,119,0.0,6.0,60,0.00,,---,0.01,VWS V13.01,2013-08-25 00:17:00,
2013-08-24 19:22:00,87.3,72.2,30.04,NE,53,2.0,6.0,61,0.00,,---,0.01,VWS V13.01,2013-08-25 00:22:00,
2013-08-24 19:27:00,87.1,72.0,30.04,ESE,104,0.0,7.0,61,0.00,,---,0.01,VWS V13.01,2013-08-25 00:27:00,
2013-08-24 19:32:00,87.0,71.9,30.05,ENE,73,0.0,10.0,61,0.00,,---,0.01,VWS V13.01,2013-08-25 00:32:00,
2013-08-24 19:37:00,86.8,71.8,30.05,East,88,4.0,4.0,61,0.00,,---,0.01,VWS V13.01,2013-08-25 00:37:00,
2013-08-24 19:42:00,86.7,71.7,30.05,ESE,110,4.0,5.0,61,0.00,,---,0.01,VWS V13.01,2013-08-25 00:42:00,
2013-08-24 19:47:00,86.6,71.6,30.05,ESE,112,0.0,5.0,61,0.00,,---,0.01,VWS V13.01,2013-08-25 00:47:00,
2013-08-24 19:53:00,86.4,71.4,30.05,ESE,112,0.0,5.0,61,0.00,,---,0.01,VWS V13.01,2013-08-25 00:53:00,
2013-08-24 19:58:00,86.3,71.8,30.05,ESE,111,2.0,5.0,62,0.00,,---,0.01,VWS V13.01,2013-08-25 00:58:00,
2013-08-24 20:03:00,86.1,71.6,30.05,East,101,0.0,6.0,62,0.00,,---,0.01,VWS V13.01,2013-08-25 01:03:00,
2013-08-24 20:08:00,85.9,71.4,30.06,NNE,32,0.0,0.0,62,0.00,,---,0.01,VWS V13.01,2013-08-25 01:08:00,
2013-08-24 20:13:00,85.7,71.7,30.06,NNE,32,0.0,0.0,63,0.00,,---,0.01,VWS V13.01,2013-08-25 01:13:00,
2013-08-24 20:18:00,85.5,71.5,30.06,ENE,71,2.0,6.0,63,0.00,,---,0.01,VWS V13.01,2013-08-25 01:18:00,
2013-08-24 20:23:00,85.3,71.8,30.06,ENE,71,0.0,6.0,64,0.00,,---,0.01,VWS V13.01,2013-08-25 01:23:00,
2013-08-24 20:28:00,85.2,71.7,30.06,ESE,103,0.0,6.0,64,0.00,,---,0.01,VWS V13.01,2013-08-25 01:28:00,
2013-08-24 20:33:00,85.1,71.6,30.06,ENE,74,0.0,6.0,64,0.00,,---,0.01,VWS V13.01,2013-08-25 01:33:00,
2013-08-24 20:38:00,84.9,71.4,30.06,ESE,118,3.0,5.0,64,0.00,,---,0.01,VWS V13.01,2013-08-25 01:38:00,
2013-08-24 20:43:00,84.7,71.2,30.07,ENE,61,5.0,6.0,64,0.00,,---,0.01,VWS V13.01,2013-08-25 01:43:00,
2013-08-24 20:48:00,84.5,71.4,30.07,ENE,76,0.0,6.0,65,0.00,,---,0.01,VWS V13.01,2013-08-25 01:48:00,
2013-08-24 20:54:00,84.3,71.3,30.07,ESE,108,2.0,6.0,65,0.00,,---,0.01,VWS V13.01,2013-08-25 01:54:00,
2013-08-24 20:59:00,84.1,71.1,30.08,ESE,102,4.0,6.0,65,0.00,,---,0.01,VWS V13.01,2013-08-25 01:59:00,
2013-08-24 21:04:00,83.9,71.3,30.08,ESE,105,0.0,6.0,66,0.00,,---,0.01,VWS V13.01,2013-08-25 02:04:00,
2013-08-24 21:09:00,83.8,71.2,30.08,East,98,3.0,6.0,66,0.00,,---,0.01,VWS V13.01,2013-08-25 02:09:00,
2013-08-24 21:14:00,83.6,71.1,30.08,ESE,115,2.0,6.0,66,0.00,,---,0.01,VWS V13.01,2013-08-25 02:14:00,
2013-08-24 21:19:00,83.4,71.3,30.08,ENE,60,0.0,6.0,67,0.00,,---,0.01,VWS V13.01,2013-08-25 02:19:00,
2013-08-24 21:24:00,83.4,71.3,30.08,ENE,78,2.0,6.0,67,0.00,,---,0.01,VWS V13.01,2013-08-25 02:24:00,
2013-08-24 21:29:00,83.3,71.2,30.09,SE,142,0.0,7.0,67,0.00,,---,0.01,VWS V13.01,2013-08-25 02:29:00,
2013-08-24 21:34:00,83.3,71.2,30.09,East,92,2.0,7.0,67,0.00,,---,0.01,VWS V13.01,2013-08-25 02:34:00,
2013-08-24 21:39:00,83.2,71.6,30.09,ESE,117,0.0,6.0,68,0.00,,---,0.01,VWS V13.01,2013-08-25 02:39:00,
2013-08-24 21:44:00,83.1,71.4,30.09,ESE,107,2.0,7.0,68,0.00,,---,0.01,VWS V13.01,2013-08-25 02:44:00,
2013-08-24 21:50:00,83.0,71.4,30.10,East,96,0.0,7.0,68,0.00,,---,0.01,VWS V13.01,2013-08-25 02:50:00,
2013-08-24 21:55:00,82.9,71.3,30.10,East,96,2.0,7.0,68,0.00,,---,0.01,VWS V13.01,2013-08-25 02:55:00,
2013-08-24 22:00:00,82.7,71.5,30.09,East,97,1.0,7.0,69,0.00,,---,0.01,VWS V13.01,2013-08-25 03:00:00,
2013-08-24 22:05:00,82.6,71.4,30.10,East,98,0.0,7.0,69,0.00,,---,0.01,VWS V13.01,2013-08-25 03:05:00,
2013-08-24 22:10:00,82.5,71.3,30.10,East,95,2.0,4.0,69,0.00,,---,0.01,VWS V13.01,2013-08-25 03:10:00,
2013-08-24 22:15:00,82.3,71.1,30.10,East,96,2.0,4.0,69,0.00,,---,0.01,VWS V13.01,2013-08-25 03:15:00,
2013-08-24 22:20:00,82.2,71.4,30.10,East,96,3.0,6.0,70,0.00,,---,0.01,VWS V13.01,2013-08-25 03:20:00,
2013-08-24 22:25:00,82.1,71.3,30.10,East,96,5.0,6.0,70,0.00,,---,0.01,VWS V13.01,2013-08-25 03:25:00,
2013-08-24 22:30:00,82.0,71.3,30.10,East,98,0.0,7.0,70,0.00,,---,0.01,VWS V13.01,2013-08-25 03:30:00,
2013-08-24 22:35:00,81.9,71.6,30.09,East,94,5.0,7.0,71,0.00,,---,0.01,VWS V13.01,2013-08-25 03:35:00,
2013-08-24 22:41:00,81.9,71.6,30.09,East,94,5.0,5.0,71,0.00,,---,0.01,VWS V13.01,2013-08-25 03:41:00,
2013-08-24 22:46:00,81.8,71.5,30.10,East,96,2.0,7.0,71,0.00,,---,0.01,VWS V13.01,2013-08-25 03:46:00,
2013-08-24 22:51:00,81.7,71.4,30.10,East,96,4.0,7.0,71,0.00,,---,0.01,VWS V13.01,2013-08-25 03:51:00,
2013-08-24 22:56:00,81.6,71.7,30.10,East,96,3.0,7.0,72,0.00,,---,0.01,VWS V13.01,2013-08-25 03:56:00,
2013-08-24 23:01:00,81.5,71.6,30.09,East,96,3.0,7.0,72,0.00,,---,0.01,VWS V13.01,2013-08-25 04:01:00,
2013-08-24 23:02:00,81.5,71.6,30.10,East,96,1.0,7.0,72,0.00,,---,0.01,VWS V13.01,2013-08-25 04:02:00,
2013-08-24 23:03:00,81.5,71.6,30.10,East,96,0.0,7.0,72,0.00,,---,0.01,VWS V13.01,2013-08-25 04:03:00,
2013-08-24 23:08:00,81.4,71.5,30.10,East,97,0.0,5.0,72,0.00,,---,0.01,VWS V13.01,2013-08-25 04:08:00,
2013-08-24 23:13:00,81.2,71.7,30.10,East,97,1.0,6.0,73,0.00,,---,0.01,VWS V13.01,2013-08-25 04:13:00,
2013-08-24 23:19:00,81.1,71.6,30.09,East,98,3.0,6.0,73,0.00,,---,0.01,VWS V13.01,2013-08-25 04:19:00,
2013-08-24 23:24:00,81.0,71.5,30.10,East,98,2.0,6.0,73,0.00,,---,0.01,VWS V13.01,2013-08-25 04:24:00,
2013-08-24 23:29:00,80.9,71.8,30.10,East,97,0.0,6.0,74,0.00,,---,0.01,VWS V13.01,2013-08-25 04:29:00,
2013-08-24 23:34:00,80.9,71.8,30.10,East,97,2.0,6.0,74,0.00,,---,0.01,VWS V13.01,2013-08-25 04:34:00,
2013-08-24 23:39:00,80.8,71.7,30.10,East,97,0.0,3.0,74,0.00,,---,0.01,VWS V13.01,2013-08-25 04:39:00,
2013-08-24 23:44:00,80.7,71.7,30.10,East,97,0.0,4.0,74,0.00,,---,0.01,VWS V13.01,2013-08-25 04:44:00,
2013-08-24 23:49:00,80.6,71.6,30.10,East,96,2.0,5.0,74,0.00,,---,0.01,VWS V13.01,2013-08-25 04:49:00,
2013-08-24 23:54:00,80.5,71.5,30.10,East,97,0.0,5.0,74,0.00,,---,0.01,VWS V13.01,2013-08-25 04:54:00,
2013-08-24 23:59:00,80.4,71.8,30.11,East,97,0.0,5.0,75,0.00,,---,0.01,VWS V13.01,2013-08-25 04:59:00,